星链-30290 (STARLINK-30290 )

导读

STARLINK-30290是美国太空探索技术公司(SpaceX)旗下星链(Starlink)互联网星座的卫星之一,于2023年9月12日发射。星链项目旨在构建全球卫星互联网,为全球偏远地区、海洋航运等提供宽带接入服务,该卫星的入轨进一步扩充了星链星座的服务能力与覆盖范围。

Basic Information
目录编号:
57858
目录名称:
STARLINK-30290
国际标识:
2023-141U
轨道中心:
EARTH
卫星名称:
星链-30290
卫星全名:
星链-30290 (STARLINK-30290 )
卫星状态:
在轨 (已飞行1088 天)
发射日期:
2023-09-12 UTC
国别 :
美国 (US)
星等 :
--
Orbit Information
数据来源 国际轨道数据 AOE轨道数据
星历时间 2026-09-04T03:03:38+0800
10小时前
查看轨道信息
2026-08-29T22:00:00+0800
5天前
查看轨道信息
半长轴 6840.878km 6840.853km
偏心率 0.0001384 0.0001437
轨道倾角 53.160° 53.157°
近地点辐角 80.298° 67.328°
升交点赤经 175.641° 199.999°
平近点角 279.818° 292.966°
近地点 461.794km 461.732km
远地点 463.688km 463.7km
周期 93.849分钟 93.848分钟
每日圈数 15.343875 15.343959
Detailed Information
固有亮度:
5
最大亮度:
0.3
卫星平台:
Starlink v2.0 mini
覆盖范围:
全球
运营商:
太空探索技术公司
运营商所在国:
美国
制造商(研发单位):
太空探索技术公司
制造商所在国:
美国
使用方式:
暂无
Satellite Introduction
星链(Starlink)计划是由太空探索技术公司(SpaceX)提出的一个巨型低轨卫星互联网星座项目,计划在2019年至2024年间在太空搭建由约1.2万颗卫星组成的“星链”网络,其中1584颗将部署在地球上空550千米处的近地轨道,并从2020年开始工作。该卫星仍在工作。
2D Orbit Map
3D Orbit Map
Orbit Altitude Analysis Chart
Orbit Inclination Analysis Chart
Orbit Comprehensive Analysis Chart
View Comprehensive Chart
Conjunction Data List
Event ID Objects TCA Miss Dist (km) Collision Risk Probability Collision Risk Index (CRI) Action
CDM_260905-000305-785806-285821
2026-09-05T
00:03:35+0000
0.337 km
远距离
3.893069E-4 高风险 0.87
CDM_260905-151505-785806-562721
2026-09-05T
15:15:14+0000
0.612 km
远距离
4.073186E-5 中风险 0.67
CDM_260905-125405-785806-562721
2026-09-05T
12:54:33+0000
0.616 km
远距离
3.986289E-5 中风险 0.67
CDM_260905-042005-785806-935521
2026-09-05T
04:20:21+0000
1.057 km
极远距离
9.932007E-6 低风险 0.55
CDM_260905-065202-822005-785821
TANSUO 1 (28220)
2026-09-05T
06:52:31+0000
1.413 km
极远距离
8.116647E-6 低风险 0.53
CDM_260829-211905-236505-785822
2026-08-29T
21:19:17+0000
1.336 km
极远距离
6.015539E-6 低风险 0.51
CDM_260905-123402-612105-785821
CZ-4 DEB (26121)
2026-09-05T
12:34:54+0000
2.858 km
极远距离
1.421158E-6 低风险 0.38
CDM_260905-085605-785806-469821
2026-09-05T
08:56:49+0000
2.174 km
极远距离
1.390662E-6 低风险 0.38
CDM_260905-140802-612105-785821
CZ-4 DEB (26121)
2026-09-05T
14:08:51+0000
2.919 km
极远距离
1.382327E-6 低风险 0.38
CDM_260905-013705-785806-285821
2026-09-05T
01:37:23+0000
2.719 km
极远距离
1.352278E-6 低风险 0.38